Location: Newark
(5.5500°N, 0.2500°W)
Time: 11:38:34
(UTC+00:00)

Hubble Space Telescope - Pass Details

Date: 27 September 2019
Orbit: 536 x 540 km, 28.5° (Epoch: 21 October)

Event Time Altitude Azimuth Distance (km) Brightness Sun altitude
Rises 18:38:24 0° 257° (WSW) 2,671 6.1 -11.7°
Reaches altitude 10° 18:40:49 10° 266° (W) 1,779 5.0 -12.3°
Maximum altitude 18:44:34 34° 332° (NNW) 888 2.1 -13.2°
Enters shadow 18:48:14 10° 38° (NE) 1,746 3.0 -14.2°
